SCP
0 0 0 0 0 0 0 0 0 0 0 0 0 0 0 0 0 0 0 0 0 0 0 0 0 0 0 0 0 0 0 0 0 0 0 0 0 0 0 0 0 0 0 0 0 0 0 0 0 0 0 0 0 0
0 0 0 0 0 0 0 0 0 0 0 0 0 0 0 0 0 0 0 0 0 0 0 0 0 0 0 0 0 0 0 0 0 0 0 0 0 0 0 0 0 0 0 0 0 0 0 0 0 0 0 0 0 0
0 0 0 0 0 0 0 0 0 0 0 0 0 0 0 0 0 0 0 0 0 0 0 0 0 0 0 0 0 0 0 0 0 0 0 0 0 0 0 0 0 0 0 0 0 0 0 0 0 0 0 0 0 0
0 0 0 0 0 0 0 0 0 0 0 0 0 0 0 0 0 0 0 0 0 0 0 0 0 0 0 0 0 0 0 0 0 0 0 0 0 0 0 0 0 0 0 0 0 0 0 0 0 0 0 0 0 0
0 0 0 0 0 0 0 0 0 0 0 0 0 0 0 0 0 0 0 0 0 0 0 0 0 0 0 0 0 0 0 0 0 0 0 0 0 0 0 0 0 0 0 0 0 0 0 0 0 0 0 -0 -0 -0
0 0 0 0 0 0 0 0 0 0 0 0 0 0 0 0 0 0 0 0 0 0 0 0 0 0 0 0 0 0 0 0 0 0 0 0 0 0 0 0 0 0 0 0 0 0 0 0 0 0 -0 -0 -0 -0
0 0 0 0 0 0 0 0 0 0 0 0 0 0 0 0 0 0 0 0 0 0 0 0 0 0 0 0 0 0 0 0 0 0 0 0 0 0 0 0 0 0 0 0 0 0 0 0 0 0 0 0 0 0
0 0 0 0 0 0 0 0 0 0 0 0 0 0 0 0 0 0 0 0 0 0 0 0 0 0 0 0 0 0 0 0 0 0 0 0 0 0 0 0 0 0 0 0 0 0 0 0 0 0 0 0 0 0
0 0 0 0 0 0 0 0 0 0 0 0 0 0 0 0 0 0 0 0 0 0 0 0 0 0 0 0 0 0 0 0 0 0 0 0 0 0 0 0 0 0 0 0 0 0 0 0 0 0 0 0 0 0
0 0 0 0 0 0 0 0 0 0 0 0 0 0 0 0 0 0 0 0 0 0 0 0 0 0 0 0 0 0 0 0 0 0 0 0 0 0 0 0 0 0 0 0 0 0 0 0 0 0 0 0 0 0
0 0 0 0 0 0 0 0 0 0 0 0 0 0 0 0 0 0 0 0 0 0 0 0 0 0 0 0 0 0 0 0 0 0 0 0 0 0 0 0 0 0 0 0 0 0 0 0 0 0 0 0 0 0
0 0 0 0 0 0 0 0 0 0 0 0 0 0 0 0 0 0 0 0 0 0 0 0 0 0 0 0 0 0 0 0 0 0 0 0 0 0 0 0 0 0 0 0 0 0 0 0 0 0 0 0 0 0
0 0 0 0 0 0 0 0 0 0 0 0 0 0 0 0 0 0 0 0 0 0 0 0 0 0 0 0 0 0 0 0 0 0 0 0 0 0 0 0 0 0 0 0 0 0 0 0 0 0 0 0 0 0
0 0 0 0 0 0 0 0 0 0 0 0 0 0 0 0 0 0 0 0 0 0 0 0 0 0 0 0 0 0 0 0 0 0 0 0 0 0 0 0 0 0 0 0 0 0 0 0 0 0 0 0 0 0
0 0 0 0 0 0 0 0 0 0 0 0 0 0 0 0 0 0 0 0 0 0 0 0 0 0 0 0 0 0 0 0 0 0 0 0 0 0 0 0 0 0 0 0 0 0 0 0 0 0 0 0 0 0
0 0 0 0 0 0 0 0 0 0 0 0 0 0 0 0 0 0 0 0 0 0 0 0 0 0 0 0 0 0 0 0 0 0 0 0 0 0 0 0 0 0 0 0 0 0 0 0 0 0 0 0 0 0
0 0 0 0 0 0 0 0 0 0 0 0 0 0 0 0 0 0 0 0 0 0 0 0 0 0 0 0 0 0 0 0 0 0 0 0 0 0 0 0 0 0 0 0 0 0 0 0 0 0 0 0 0 0
0 0 0 0 0 0 0 0 0 0 0 0 0 0 0 0 0 0 0 0 0 0 0 0 0 0 0 0 0 0 0 0 0 0 0 0 0 0 0 0 0 0 0 0 0 0 0 0 0 0 0 0 0 0
0 0 0 0 0 0 0 0 0 0 0 0 0 0 0 0 0 0 0 0 0 0 0 0 0 0 0 0 0 0 0 0 0 0 0 0 0 0 0 0 0 0 0 0 0 0 0 0 0 0 0 0 0 0
0 0 0 0 0 0 0 0 0 0 0 0 0 0 0 0 0 0 0 0 0 0 0 0 0 0 0 0 0 0 0 0 0 0 0 0 0 0 0 0 0 0 0 0 0 0 0 0 0 0 0 0 0 0
0 0 0 0 0 0 0 0 0 0 0 0 0 0 0 0 0 0 0 0 0 0 0 0 0 0 0 0 0 0 0 0 0 0 0 0 0 0 0 0 0 0 0 0 0 0 0 0 0 0 0 0 0 0
0 0 0 0 0 0 0 0 0 0 0 0 0 0 0 0 0 0 0 0 0 0 0 0 0 0 0 0 0 0 0 0 0 0 0 0 0 0 0 0 0 0 0 0 0 0 0 0 0 0 0 0 0 0
0 0 0 0 0 0 0 0 0 0 0 0 0 0 0 0 0 0 0 0 0 0 0 0 0 0 0 0 0 0 0 0 0 0 0 0 0 0 0 0 0 0 0 0 0 0 0 0 0 0 0 0 0 0
0 0 0 0 0 0 0 0 0 0 0 0 0 0 0 0 0 0 0 0 0 0 0 0 0 0 0 0 0 0 0 0 0 0 0 0 0 0 0 0 0 0 0 0 0 0 0 0 0 0 0 0 0 0
0 0 0 0 0 0 0 0 0 0 0 0 0 0 0 0 0 0 0 0 0 0 0 0 0 0 0 0 0 0 0 0 0 0 0 0 0 0 0 0 0 0 0 0 0 0 0 0 0 0 0 0 0 0
0 0 0 0 0 0 0 0 0 0 0 0 0 0 0 0 0 0 0 0 0 0 0 0 0 0 0 0 0 0 0 0 0 0 0 0 0 0 0 0 0 0 0 0 0 0 0 0 0 0 0 0 0 0
0 0 0 0 0 0 0 0 0 0 0 0 0 0 0 0 0 0 0 0 0 0 0 0 0 0 0 0 0 0 0 0 0 0 0 0 0 0 0 0 0 0 0 0 0 0 0 0 0 0 0 0 0 0
0 0 0 0 0 0 0 0 0 0 0 0 0 0 0 -0 -0 0 0 0 0 0 0 0 0 0 0 0 0 0 0 0 0 0 0 -0 -0 0 0 0 0 0 0 0 0 0 0 0 0 0 0 0 0 0
0 0 0 0 0 0 -0 0 0 0 0 0 0 0 0 0 0 0 0 0 0 0 0 0 0 0 0 0 0 0 0 0 0 0 0 0 0 0 0 0 0 0 0 0 0 0 0 0 0 0 0 0 0 0
0 0 0 0 0 0 0 0 0 0 0 0 0 0 0 0 0 0 0 0 0 0 0 0 0 0 0 0 0 0 0 0 0 0 -0 -0 -0 -0 -0 0 0 0 0 0 0 0 0 0 0 0 0 0 0 0
0 0 0 0 0 0 0 0 0 0 0 0 0 0 0 0 0 0 0 0 0 0 0 0 0 0 0 0 0 0 0 0 -0 -0 -0 -0 -0 -0 -0 0 0 0 0 0 0 0 0 0 0 0 0 0 0 0
0 0 0 -0 0 0 0 0 0 0 0 0 0 0 0 0 0 0 0 0 0 0 0 0 0 0 0 -0 0 0 -0 -0 -0 -0 -0 -0 -0 -0 0 0 0 0 0 0 0 0 0 0 0 0 0 0 0 0
0 0 0 0 0 0 0 0 0 0 0 0 0 0 0 0 0 0 0 0 0 0 0 0 0 -0 -0 -0 -0 -0 -0 -0 -0 -0 -0 -0 -0 -0 -0 0 0 0 0 0 0 0 0 0 0 0 0 0 0 0
Wind_Speed_500mb
46 55 60 55 49 44 35 23 18 19 17 14 16 15 10 7 5 4 8 14 12 6 6 11 14 13 12 11 4 4 6 12 9 9 5 4 4 2 5 6 7 9 10 5 6 4 5 20 10 10 15 20 23 28
53 45 48 54 50 46 46 37 26 20 17 15 15 17 14 8 5 3 4 15 14 4 2 5 8 8 11 18 11 9 8 4 5 8 2 4 1 4 4 1 4 1 11 10 15 11 7 34 4 18 35 31 40 40
55 49 45 43 46 47 45 43 38 29 23 17 15 14 13 10 8 4 7 11 11 8 3 4 3 5 11 16 16 2 7 7 8 9 10 4 6 6 4 3 1 5 7 6 5 6 11 27 18 35 31 26 41 39
62 53 50 43 41 43 45 44 39 35 28 20 16 15 15 13 10 6 5 8 8 5 3 3 15 11 7 9 10 9 17 16 15 11 6 5 4 5 6 5 5 4 2 7 4 8 4 14 31 33 36 34 41 40
62 63 51 46 40 40 41 41 42 39 32 23 19 17 16 15 12 10 9 8 4 5 5 7 5 9 14 4 8 3 2 6 7 4 5 4 4 5 4 4 5 6 11 8 11 24 14 25 36 37 39 42 40 42
57 66 53 46 42 41 39 38 36 34 26 23 19 16 16 16 13 13 7 13 11 3 8 5 4 11 18 12 2 4 6 5 5 7 6 7 9 6 5 6 9 8 6 7 6 35 21 30 39 44 45 45 45 44
53 64 63 48 43 40 39 38 35 31 25 20 16 15 14 16 21 15 4 5 14 7 5 10 13 3 20 14 3 4 8 3 3 4 5 4 8 9 6 10 21 17 7 2 4 21 19 34 43 47 48 48 53 50
48 55 65 55 47 40 38 36 39 35 27 21 17 14 11 14 22 20 4 4 13 10 4 1 9 3 17 8 4 6 7 9 7 4 4 6 5 4 6 18 28 26 18 13 16 25 30 35 40 45 44 47 55 52
39 53 58 54 46 39 37 37 39 37 29 21 14 9 10 13 14 19 9 8 16 7 4 4 5 7 13 10 6 7 6 0 4 4 6 10 1 8 16 29 35 34 26 19 16 20 40 32 38 40 37 44 50 57
44 55 52 53 51 46 41 39 38 33 26 18 19 11 8 16 19 22 11 5 9 10 8 8 6 5 8 11 8 7 5 4 1 7 8 4 8 29 29 20 26 20 15 24 19 18 18 28 34 32 39 45 43 44
53 63 51 55 52 48 47 44 42 35 27 27 15 7 20 32 19 10 7 6 8 5 13 14 22 7 11 7 8 10 6 4 3 8 8 3 7 13 14 40 40 31 13 13 13 9 18 26 31 26 39 44 46 46
61 62 55 58 53 52 47 47 41 35 28 23 15 22 29 10 8 7 6 4 7 11 12 16 24 29 8 10 8 11 6 2 9 6 5 3 8 17 18 19 14 34 44 39 19 18 22 21 17 16 17 34 50 56
47 47 52 59 57 54 49 46 39 34 33 25 12 13 10 8 6 13 14 7 6 12 18 19 10 15 15 10 5 6 6 9 7 4 6 8 17 16 13 4 5 7 17 30 22 21 19 17 17 23 30 27 23 39
39 56 55 57 54 58 50 44 35 40 27 11 11 4 10 7 10 11 11 11 15 8 21 30 19 10 11 8 6 7 6 5 2 2 7 6 11 18 22 21 21 23 25 26 21 14 10 11 15 19 25 33 31 29
41 51 48 51 51 49 45 40 32 42 11 6 7 9 11 16 14 12 18 18 13 5 5 19 8 8 4 6 3 5 4 7 9 9 5 12 14 18 24 26 24 23 19 14 9 8 10 10 13 18 22 24 24 33
52 53 50 47 49 44 40 28 34 30 4 5 9 6 11 5 13 22 28 34 26 20 6 10 8 6 7 7 7 12 10 10 6 6 21 24 30 28 23 21 22 18 15 14 11 9 5 7 11 13 17 20 22 23
54 52 50 46 44 40 31 36 26 14 9 9 12 15 19 18 19 16 20 25 24 13 8 8 9 14 7 7 7 2 9 5 28 28 26 26 26 26 24 25 27 26 24 23 18 15 15 13 10 9 15 24 25 32
48 51 59 53 46 41 40 25 13 14 11 20 10 5 8 8 7 6 4 18 20 20 21 8 10 5 4 10 4 5 17 35 35 34 30 28 25 21 20 24 21 20 20 20 20 18 17 19 20 15 11 20 31 39
43 47 46 44 47 36 11 20 7 5 15 10 7 6 2 0 7 12 16 21 24 25 25 9 9 5 5 8 27 30 34 36 38 34 30 27 24 20 15 11 10 12 14 17 19 23 24 22 19 17 19 19 23 32
42 43 43 52 36 11 7 6 11 9 11 7 1 8 7 3 9 15 16 19 20 11 12 6 5 11 31 38 37 39 37 33 32 30 24 19 15 13 11 10 9 10 14 16 17 21 24 24 23 22 20 18 18 21
47 45 50 29 34 7 9 11 11 12 9 4 5 10 6 3 7 8 10 9 10 7 7 17 31 38 34 30 24 17 16 10 9 10 6 1 5 11 16 20 22 24 27 30 34 35 37 39 39 38 34 32 31 31
47 46 27 24 15 9 8 15 10 6 4 8 14 11 3 1 3 4 5 9 8 13 20 33 30 31 30 25 20 15 12 7 4 5 10 15 20 25 29 34 38 39 39 34 31 31 35 41 45 44 43 33 29 31
43 22 8 7 3 3 6 6 9 6 2 5 29 9 5 6 6 10 5 4 9 20 20 19 20 23 25 28 23 18 13 10 11 13 13 17 19 19 19 21 24 27 31 31 32 33 35 35 35 34 31 30 33 37
33 16 4 8 11 5 5 5 4 5 5 6 8 8 6 10 15 6 4 6 8 9 13 14 22 35 33 28 24 20 16 12 11 9 10 15 20 24 28 31 34 35 38 42 47 51 54 56 56 56 54 51 44 41
12 14 11 14 14 9 9 5 7 7 6 5 5 3 6 12 5 5 8 6 12 18 17 22 35 36 33 32 28 22 18 13 13 18 24 30 36 40 42 43 44 44 44 47 49 53 58 61 64 66 67 66 64 57
8 18 17 20 8 11 13 10 12 10 6 7 9 9 11 7 6 6 10 27 31 32 33 32 34 35 30 23 18 13 14 21 27 31 33 35 38 41 44 45 47 44 39 46 50 51 52 51 52 55 62 64 63 62
4 5 9 12 9 8 6 7 11 11 8 5 5 5 3 6 9 9 20 31 30 30 26 24 20 18 17 15 13 15 20 26 25 25 28 30 33 34 34 38 43 46 38 34 40 46 50 49 48 51 54 57 57 56
8 6 5 4 4 8 8 6 4 6 6 7 10 6 9 7 8 14 19 26 23 18 17 15 14 16 17 19 18 20 21 20 19 21 20 26 32 35 32 31 35 37 42 46 48 48 49 54 58 59 62 63 59 52
4 2 12 4 2 4 7 12 11 9 10 11 11 6 10 5 11 18 24 25 24 24 22 20 20 20 17 16 15 18 16 17 20 22 27 36 44 40 33 38 41 44 44 43 42 46 53 59 62 64 66 63 61 61
3 5 2 5 5 3 2 3 8 11 11 8 9 12 11 11 11 17 20 21 16 11 8 10 10 8 7 9 10 13 16 16 20 27 36 41 44 41 41 46 46 40 38 45 49 50 47 48 53 61 64 62 62 54
2 4 2 4 6 12 25 25 22 17 14 10 6 6 12 13 13 17 15 13 12 8 11 12 10 11 12 13 15 20 20 16 24 26 30 35 39 41 45 47 41 40 44 46 46 45 46 58 60 61 61 58 52 46
4 4 3 4 7 21 21 14 12 7 13 8 8 10 11 10 13 18 25 25 24 23 20 14 9 7 10 12 13 15 20 20 23 25 25 29 32 34 40 45 40 38 43 44 38 37 44 57 53 58 43 32 28 29
6 7 4 9 10 13 15 11 9 7 8 10 12 16 13 8 8 11 15 20 17 14 11 5 4 5 4 5 10 13 16 18 17 19 24 33 36 34 38 41 36 36 36 41 31 33 42 41 43 39 31 27 26 22
Wind_Direction_500mb
212 215 217 220 223 225 228 238 245 253 263 256 267 286 309 335 17 33 15 14 18 16 46 49 35 29 45 24 107 20 73 22 45 64 111 214 143 263 74 172 177 155 130 157 89 110 262 171 121 160 174 159 178 192
210 212 212 217 222 223 226 231 240 248 253 259 255 270 292 303 320 358 337 1 359 335 238 327 1 29 47 28 9 46 107 102 111 95 102 122 128 62 160 216 33 76 174 182 174 210 256 177 188 177 168 166 176 180
204 209 208 211 218 222 224 226 233 242 251 257 262 256 267 269 267 266 282 327 358 342 306 272 79 107 44 24 20 358 91 98 97 96 136 145 88 127 119 255 293 319 147 117 109 258 218 199 195 172 179 182 182 189
204 208 211 213 216 218 221 221 226 235 235 247 267 265 256 253 247 241 291 323 359 330 357 110 136 145 109 33 22 76 115 111 94 67 88 117 118 191 193 206 157 202 114 136 301 287 159 181 191 182 181 189 184 183
205 208 212 210 211 214 215 218 222 231 234 248 259 267 253 246 231 215 232 255 1 16 304 307 238 199 182 242 331 326 50 137 137 131 89 224 179 125 21 63 282 188 175 151 215 207 179 209 189 191 192 188 189 186
203 202 204 203 208 210 213 214 219 220 221 237 249 264 250 235 209 189 226 243 239 311 337 345 262 241 198 211 186 183 117 97 141 161 202 215 179 171 121 205 238 197 139 178 238 186 212 186 194 195 202 199 202 202
202 202 204 202 204 207 210 210 209 205 213 224 250 265 248 221 192 186 169 206 204 190 297 311 317 180 195 201 193 185 163 152 209 180 227 231 163 187 131 200 193 178 181 336 190 179 182 188 192 200 207 210 205 205
200 201 203 205 204 206 206 210 199 203 210 235 265 267 237 205 193 195 210 194 174 188 272 204 277 295 187 188 175 160 162 199 215 228 209 212 179 201 242 232 208 220 213 227 244 231 224 205 204 203 210 209 204 199
201 194 194 198 197 201 196 199 200 212 219 236 250 217 174 173 182 186 164 156 185 202 250 214 196 224 178 165 159 147 181 99 253 227 235 166 245 222 230 222 218 223 214 224 225 241 233 221 214 206 219 215 204 199
195 187 195 197 193 191 192 194 199 199 202 205 174 171 175 159 150 151 167 194 192 206 234 246 234 263 178 166 152 150 174 181 207 251 159 125 253 252 253 253 239 203 244 226 246 230 218 219 204 222 237 228 220 212
189 192 190 192 184 185 191 193 189 186 184 170 175 151 141 141 136 174 189 184 184 238 214 222 214 226 192 144 183 204 179 172 148 260 140 281 288 260 294 237 234 234 234 196 203 192 212 218 226 233 228 224 223 221
185 190 194 185 184 188 187 180 182 183 175 173 148 136 140 180 173 147 202 176 186 219 210 195 208 207 215 202 165 185 167 113 231 147 91 263 256 284 300 295 248 234 243 243 254 220 199 198 220 251 233 235 238 238
186 184 181 180 181 185 182 182 184 183 173 160 156 163 179 175 59 183 185 224 200 209 198 182 184 173 198 210 158 142 143 220 129 89 217 227 319 4 20 31 215 176 205 219 224 198 196 215 238 253 255 257 266 244
185 183 178 174 179 175 183 182 186 183 173 180 167 168 177 218 230 190 187 192 203 211 180 174 154 170 174 159 166 142 222 120 93 145 234 288 18 61 89 109 136 130 137 152 163 182 220 268 279 281 276 257 259 270
172 154 153 162 162 169 172 180 189 185 197 199 198 218 209 230 238 236 224 246 215 50 60 162 131 172 140 130 215 103 137 224 188 208 204 107 88 81 85 92 99 104 115 139 157 215 248 261 263 274 285 285 283 264
162 159 168 169 169 169 173 183 182 183 242 264 236 264 243 242 258 245 254 262 255 258 245 189 126 142 209 152 136 203 152 202 206 162 124 101 87 81 77 71 68 67 63 58 48 40 3 314 307 293 278 277 283 278
160 164 168 176 166 164 174 169 164 191 210 236 244 246 265 277 265 266 264 251 215 177 184 154 142 195 142 127 159 94 169 178 130 116 110 105 94 84 81 80 74 70 67 60 45 20 9 352 338 322 303 293 275 256
176 176 167 165 161 153 159 165 168 193 244 242 249 234 313 251 276 178 198 181 173 187 171 178 127 104 145 141 192 207 131 126 117 113 110 100 93 86 77 73 67 58 51 44 37 31 23 21 19 358 311 280 261 236
153 151 153 156 159 152 133 180 215 259 251 256 245 298 301 265 93 91 100 124 144 137 128 105 79 121 169 122 130 126 140 132 122 115 107 99 92 85 79 62 42 32 28 19 13 18 20 18 4 353 354 334 293 264
150 152 157 150 151 131 130 162 218 266 256 206 189 356 357 44 111 104 100 128 121 83 66 58 155 150 137 137 124 117 124 127 136 126 107 96 86 69 52 34 16 347 326 314 317 321 318 324 342 346 340 330 315 292
151 156 160 159 154 142 177 167 203 241 273 174 82 3 342 96 132 97 73 69 68 57 88 121 121 128 132 128 122 116 114 113 113 109 104 48 320 312 313 316 318 319 318 313 310 307 308 312 311 312 316 318 313 305
147 161 157 161 189 217 215 187 229 256 234 128 165 315 332 106 94 83 72 58 75 97 128 134 136 144 148 146 145 150 153 172 217 270 280 281 286 292 298 303 303 304 305 309 309 308 303 299 299 300 300 296 298 290
154 155 112 162 181 221 239 203 212 169 73 172 154 207 243 201 173 143 80 115 116 137 142 145 147 158 163 165 169 172 178 199 211 227 247 261 266 267 265 272 281 287 287 286 290 294 295 295 297 300 299 293 285 279
166 164 165 211 213 259 225 218 221 151 250 178 143 152 201 180 164 138 178 190 180 185 199 197 179 173 172 175 178 174 176 193 222 233 255 269 275 281 286 286 288 292 294 292 288 288 288 287 285 286 287 288 288 287
164 207 205 200 195 205 194 211 199 191 181 166 129 187 197 165 113 175 183 184 207 225 226 185 182 188 183 172 171 180 187 211 254 279 290 293 294 293 291 290 290 291 289 287 289 292 294 294 292 288 284 280 279 278
205 200 201 191 178 200 175 175 183 176 168 152 206 182 168 134 154 195 180 168 159 157 158 171 181 172 171 182 193 220 264 283 291 297 300 301 305 307 308 307 304 300 299 302 302 304 308 311 309 305 297 291 284 278
264 257 226 225 211 169 120 347 104 126 160 202 142 118 129 168 211 192 185 195 184 167 166 173 180 194 207 229 256 276 288 289 294 303 308 310 310 310 310 309 307 306 307 300 300 302 302 303 307 308 310 310 309 301
239 244 253 318 54 105 120 134 137 165 192 196 143 138 170 218 209 173 187 190 185 193 218 226 235 248 257 262 261 257 258 265 284 303 312 342 349 344 333 323 319 317 313 305 300 300 302 299 298 298 299 296 297 302
256 359 150 178 174 129 163 185 192 189 173 165 144 167 193 186 168 179 171 180 197 217 235 248 252 253 250 242 247 270 268 273 302 310 321 328 336 343 333 332 325 319 320 319 316 314 308 304 301 295 295 289 290 287
335 12 39 138 128 161 187 198 143 132 128 132 130 135 144 147 167 173 180 185 202 218 240 228 213 231 216 249 262 275 287 290 294 298 304 309 318 324 327 325 322 323 320 316 315 315 312 311 307 306 301 293 290 280
241 263 185 85 89 120 130 132 127 115 91 77 92 156 161 164 179 188 196 203 191 217 215 202 218 241 247 255 269 287 297 292 290 293 299 307 312 308 315 322 323 322 324 321 319 316 315 323 314 321 315 304 293 287
247 230 137 118 122 155 155 160 162 159 163 144 135 147 167 175 199 203 211 202 215 211 204 218 234 260 268 279 289 299 303 307 309 307 304 315 322 314 319 324 323 320 321 324 321 317 320 334 326 323 322 321 310 292
213 225 197 127 138 174 188 175 180 154 182 198 189 190 200 212 218 208 195 194 188 188 188 183 306 288 284 312 318 316 313 313 319 319 317 317 316 318 323 333 333 325 324 328 328 336 345 349 345 339 332 332 323 301
Wind_Speed_850mb
46 55 60 55 49 44 35 23 18 19 17 14 16 15 10 7 5 4 8 14 12 6 6 11 14 13 12 11 4 4 6 12 9 9 5 4 4 2 5 6 7 9 10 5 6 4 5 20 10 10 15 20 23 28
53 45 48 54 50 46 46 37 26 20 17 15 15 17 14 8 5 3 4 15 14 4 2 5 8 8 11 18 11 9 8 4 5 8 2 4 1 4 4 1 4 1 11 10 15 11 7 34 4 18 35 31 40 40
55 49 45 43 46 47 45 43 38 29 23 17 15 14 13 10 8 4 7 11 11 8 3 4 3 5 11 16 16 2 7 7 8 9 10 4 6 6 4 3 1 5 7 6 5 6 11 27 18 35 31 26 41 39
62 53 50 43 41 43 45 44 39 35 28 20 16 15 15 13 10 6 5 8 8 5 3 3 15 11 7 9 10 9 17 16 15 11 6 5 4 5 6 5 5 4 2 7 4 8 4 14 31 33 36 34 41 40
62 63 51 46 40 40 41 41 42 39 32 23 19 17 16 15 12 10 9 8 4 5 5 7 5 9 14 4 8 3 2 6 7 4 5 4 4 5 4 4 5 6 11 8 11 24 14 25 36 37 39 42 40 42
57 66 53 46 42 41 39 38 36 34 26 23 19 16 16 16 13 13 7 13 11 3 8 5 4 11 18 12 2 4 6 5 5 7 6 7 9 6 5 6 9 8 6 7 6 35 21 30 39 44 45 45 45 44
53 64 63 48 43 40 39 38 35 31 25 20 16 15 14 16 21 15 4 5 14 7 5 10 13 3 20 14 3 4 8 3 3 4 5 4 8 9 6 10 21 17 7 2 4 21 19 34 43 47 48 48 53 50
48 55 65 55 47 40 38 36 39 35 27 21 17 14 11 14 22 20 4 4 13 10 4 1 9 3 17 8 4 6 7 9 7 4 4 6 5 4 6 18 28 26 18 13 16 25 30 35 40 45 44 47 55 52
39 53 58 54 46 39 37 37 39 37 29 21 14 9 10 13 14 19 9 8 16 7 4 4 5 7 13 10 6 7 6 0 4 4 6 10 1 8 16 29 35 34 26 19 16 20 40 32 38 40 37 44 50 57
44 55 52 53 51 46 41 39 38 33 26 18 19 11 8 16 19 22 11 5 9 10 8 8 6 5 8 11 8 7 5 4 1 7 8 4 8 29 29 20 26 20 15 24 19 18 18 28 34 32 39 45 43 44
53 63 51 55 52 48 47 44 42 35 27 27 15 7 20 32 19 10 7 6 8 5 13 14 22 7 11 7 8 10 6 4 3 8 8 3 7 13 14 40 40 31 13 13 13 9 18 26 31 26 39 44 46 46
61 62 55 58 53 52 47 47 41 35 28 23 15 22 29 10 8 7 6 4 7 11 12 16 24 29 8 10 8 11 6 2 9 6 5 3 8 17 18 19 14 34 44 39 19 18 22 21 17 16 17 34 50 56
47 47 52 59 57 54 49 46 39 34 33 25 12 13 10 8 6 13 14 7 6 12 18 19 10 15 15 10 5 6 6 9 7 4 6 8 17 16 13 4 5 7 17 30 22 21 19 17 17 23 30 27 23 39
39 56 55 57 54 58 50 44 35 40 27 11 11 4 10 7 10 11 11 11 15 8 21 30 19 10 11 8 6 7 6 5 2 2 7 6 11 18 22 21 21 23 25 26 21 14 10 11 15 19 25 33 31 29
41 51 48 51 51 49 45 40 32 42 11 6 7 9 11 16 14 12 18 18 13 5 5 19 8 8 4 6 3 5 4 7 9 9 5 12 14 18 24 26 24 23 19 14 9 8 10 10 13 18 22 24 24 33
52 53 50 47 49 44 40 28 34 30 4 5 9 6 11 5 13 22 28 34 26 20 6 10 8 6 7 7 7 12 10 10 6 6 21 24 30 28 23 21 22 18 15 14 11 9 5 7 11 13 17 20 22 23
54 52 50 46 44 40 31 36 26 14 9 9 12 15 19 18 19 16 20 25 24 13 8 8 9 14 7 7 7 2 9 5 28 28 26 26 26 26 24 25 27 26 24 23 18 15 15 13 10 9 15 24 25 32
48 51 59 53 46 41 40 25 13 14 11 20 10 5 8 8 7 6 4 18 20 20 21 8 10 5 4 10 4 5 17 35 35 34 30 28 25 21 20 24 21 20 20 20 20 18 17 19 20 15 11 20 31 39
43 47 46 44 47 36 11 20 7 5 15 10 7 6 2 0 7 12 16 21 24 25 25 9 9 5 5 8 27 30 34 36 38 34 30 27 24 20 15 11 10 12 14 17 19 23 24 22 19 17 19 19 23 32
42 43 43 52 36 11 7 6 11 9 11 7 1 8 7 3 9 15 16 19 20 11 12 6 5 11 31 38 37 39 37 33 32 30 24 19 15 13 11 10 9 10 14 16 17 21 24 24 23 22 20 18 18 21
47 45 50 29 34 7 9 11 11 12 9 4 5 10 6 3 7 8 10 9 10 7 7 17 31 38 34 30 24 17 16 10 9 10 6 1 5 11 16 20 22 24 27 30 34 35 37 39 39 38 34 32 31 31
47 46 27 24 15 9 8 15 10 6 4 8 14 11 3 1 3 4 5 9 8 13 20 33 30 31 30 25 20 15 12 7 4 5 10 15 20 25 29 34 38 39 39 34 31 31 35 41 45 44 43 33 29 31
43 22 8 7 3 3 6 6 9 6 2 5 29 9 5 6 6 10 5 4 9 20 20 19 20 23 25 28 23 18 13 10 11 13 13 17 19 19 19 21 24 27 31 31 32 33 35 35 35 34 31 30 33 37
33 16 4 8 11 5 5 5 4 5 5 6 8 8 6 10 15 6 4 6 8 9 13 14 22 35 33 28 24 20 16 12 11 9 10 15 20 24 28 31 34 35 38 42 47 51 54 56 56 56 54 51 44 41
12 14 11 14 14 9 9 5 7 7 6 5 5 3 6 12 5 5 8 6 12 18 17 22 35 36 33 32 28 22 18 13 13 18 24 30 36 40 42 43 44 44 44 47 49 53 58 61 64 66 67 66 64 57
8 18 17 20 8 11 13 10 12 10 6 7 9 9 11 7 6 6 10 27 31 32 33 32 34 35 30 23 18 13 14 21 27 31 33 35 38 41 44 45 47 44 39 46 50 51 52 51 52 55 62 64 63 62
4 5 9 12 9 8 6 7 11 11 8 5 5 5 3 6 9 9 20 31 30 30 26 24 20 18 17 15 13 15 20 26 25 25 28 30 33 34 34 38 43 46 38 34 40 46 50 49 48 51 54 57 57 56
8 6 5 4 4 8 8 6 4 6 6 7 10 6 9 7 8 14 19 26 23 18 17 15 14 16 17 19 18 20 21 20 19 21 20 26 32 35 32 31 35 37 42 46 48 48 49 54 58 59 62 63 59 52
4 2 12 4 2 4 7 12 11 9 10 11 11 6 10 5 11 18 24 25 24 24 22 20 20 20 17 16 15 18 16 17 20 22 27 36 44 40 33 38 41 44 44 43 42 46 53 59 62 64 66 63 61 61
3 5 2 5 5 3 2 3 8 11 11 8 9 12 11 11 11 17 20 21 16 11 8 10 10 8 7 9 10 13 16 16 20 27 36 41 44 41 41 46 46 40 38 45 49 50 47 48 53 61 64 62 62 54
2 4 2 4 6 12 25 25 22 17 14 10 6 6 12 13 13 17 15 13 12 8 11 12 10 11 12 13 15 20 20 16 24 26 30 35 39 41 45 47 41 40 44 46 46 45 46 58 60 61 61 58 52 46
4 4 3 4 7 21 21 14 12 7 13 8 8 10 11 10 13 18 25 25 24 23 20 14 9 7 10 12 13 15 20 20 23 25 25 29 32 34 40 45 40 38 43 44 38 37 44 57 53 58 43 32 28 29
6 7 4 9 10 13 15 11 9 7 8 10 12 16 13 8 8 11 15 20 17 14 11 5 4 5 4 5 10 13 16 18 17 19 24 33 36 34 38 41 36 36 36 41 31 33 42 41 43 39 31 27 26 22
Wind_Direction_850mb
212 215 217 220 223 225 228 238 245 253 263 256 267 286 309 335 17 33 15 14 18 16 46 49 35 29 45 24 107 20 73 22 45 64 111 214 143 263 74 172 177 155 130 157 89 110 262 171 121 160 174 159 178 192
210 212 212 217 222 223 226 231 240 248 253 259 255 270 292 303 320 358 337 1 359 335 238 327 1 29 47 28 9 46 107 102 111 95 102 122 128 62 160 216 33 76 174 182 174 210 256 177 188 177 168 166 176 180
204 209 208 211 218 222 224 226 233 242 251 257 262 256 267 269 267 266 282 327 358 342 306 272 79 107 44 24 20 358 91 98 97 96 136 145 88 127 119 255 293 319 147 117 109 258 218 199 195 172 179 182 182 189
204 208 211 213 216 218 221 221 226 235 235 247 267 265 256 253 247 241 291 323 359 330 357 110 136 145 109 33 22 76 115 111 94 67 88 117 118 191 193 206 157 202 114 136 301 287 159 181 191 182 181 189 184 183
205 208 212 210 211 214 215 218 222 231 234 248 259 267 253 246 231 215 232 255 1 16 304 307 238 199 182 242 331 326 50 137 137 131 89 224 179 125 21 63 282 188 175 151 215 207 179 209 189 191 192 188 189 186
203 202 204 203 208 210 213 214 219 220 221 237 249 264 250 235 209 189 226 243 239 311 337 345 262 241 198 211 186 183 117 97 141 161 202 215 179 171 121 205 238 197 139 178 238 186 212 186 194 195 202 199 202 202
202 202 204 202 204 207 210 210 209 205 213 224 250 265 248 221 192 186 169 206 204 190 297 311 317 180 195 201 193 185 163 152 209 180 227 231 163 187 131 200 193 178 181 336 190 179 182 188 192 200 207 210 205 205
200 201 203 205 204 206 206 210 199 203 210 235 265 267 237 205 193 195 210 194 174 188 272 204 277 295 187 188 175 160 162 199 215 228 209 212 179 201 242 232 208 220 213 227 244 231 224 205 204 203 210 209 204 199
201 194 194 198 197 201 196 199 200 212 219 236 250 217 174 173 182 186 164 156 185 202 250 214 196 224 178 165 159 147 181 99 253 227 235 166 245 222 230 222 218 223 214 224 225 241 233 221 214 206 219 215 204 199
195 187 195 197 193 191 192 194 199 199 202 205 174 171 175 159 150 151 167 194 192 206 234 246 234 263 178 166 152 150 174 181 207 251 159 125 253 252 253 253 239 203 244 226 246 230 218 219 204 222 237 228 220 212
189 192 190 192 184 185 191 193 189 186 184 170 175 151 141 141 136 174 189 184 184 238 214 222 214 226 192 144 183 204 179 172 148 260 140 281 288 260 294 237 234 234 234 196 203 192 212 218 226 233 228 224 223 221
185 190 194 185 184 188 187 180 182 183 175 173 148 136 140 180 173 147 202 176 186 219 210 195 208 207 215 202 165 185 167 113 231 147 91 263 256 284 300 295 248 234 243 243 254 220 199 198 220 251 233 235 238 238
186 184 181 180 181 185 182 182 184 183 173 160 156 163 179 175 59 183 185 224 200 209 198 182 184 173 198 210 158 142 143 220 129 89 217 227 319 4 20 31 215 176 205 219 224 198 196 215 238 253 255 257 266 244
185 183 178 174 179 175 183 182 186 183 173 180 167 168 177 218 230 190 187 192 203 211 180 174 154 170 174 159 166 142 222 120 93 145 234 288 18 61 89 109 136 130 137 152 163 182 220 268 279 281 276 257 259 270
172 154 153 162 162 169 172 180 189 185 197 199 198 218 209 230 238 236 224 246 215 50 60 162 131 172 140 130 215 103 137 224 188 208 204 107 88 81 85 92 99 104 115 139 157 215 248 261 263 274 285 285 283 264
162 159 168 169 169 169 173 183 182 183 242 264 236 264 243 242 258 245 254 262 255 258 245 189 126 142 209 152 136 203 152 202 206 162 124 101 87 81 77 71 68 67 63 58 48 40 3 314 307 293 278 277 283 278
160 164 168 176 166 164 174 169 164 191 210 236 244 246 265 277 265 266 264 251 215 177 184 154 142 195 142 127 159 94 169 178 130 116 110 105 94 84 81 80 74 70 67 60 45 20 9 352 338 322 303 293 275 256
176 176 167 165 161 153 159 165 168 193 244 242 249 234 313 251 276 178 198 181 173 187 171 178 127 104 145 141 192 207 131 126 117 113 110 100 93 86 77 73 67 58 51 44 37 31 23 21 19 358 311 280 261 236
153 151 153 156 159 152 133 180 215 259 251 256 245 298 301 265 93 91 100 124 144 137 128 105 79 121 169 122 130 126 140 132 122 115 107 99 92 85 79 62 42 32 28 19 13 18 20 18 4 353 354 334 293 264
150 152 157 150 151 131 130 162 218 266 256 206 189 356 357 44 111 104 100 128 121 83 66 58 155 150 137 137 124 117 124 127 136 126 107 96 86 69 52 34 16 347 326 314 317 321 318 324 342 346 340 330 315 292
151 156 160 159 154 142 177 167 203 241 273 174 82 3 342 96 132 97 73 69 68 57 88 121 121 128 132 128 122 116 114 113 113 109 104 48 320 312 313 316 318 319 318 313 310 307 308 312 311 312 316 318 313 305
147 161 157 161 189 217 215 187 229 256 234 128 165 315 332 106 94 83 72 58 75 97 128 134 136 144 148 146 145 150 153 172 217 270 280 281 286 292 298 303 303 304 305 309 309 308 303 299 299 300 300 296 298 290
154 155 112 162 181 221 239 203 212 169 73 172 154 207 243 201 173 143 80 115 116 137 142 145 147 158 163 165 169 172 178 199 211 227 247 261 266 267 265 272 281 287 287 286 290 294 295 295 297 300 299 293 285 279
166 164 165 211 213 259 225 218 221 151 250 178 143 152 201 180 164 138 178 190 180 185 199 197 179 173 172 175 178 174 176 193 222 233 255 269 275 281 286 286 288 292 294 292 288 288 288 287 285 286 287 288 288 287
164 207 205 200 195 205 194 211 199 191 181 166 129 187 197 165 113 175 183 184 207 225 226 185 182 188 183 172 171 180 187 211 254 279 290 293 294 293 291 290 290 291 289 287 289 292 294 294 292 288 284 280 279 278
205 200 201 191 178 200 175 175 183 176 168 152 206 182 168 134 154 195 180 168 159 157 158 171 181 172 171 182 193 220 264 283 291 297 300 301 305 307 308 307 304 300 299 302 302 304 308 311 309 305 297 291 284 278
264 257 226 225 211 169 120 347 104 126 160 202 142 118 129 168 211 192 185 195 184 167 166 173 180 194 207 229 256 276 288 289 294 303 308 310 310 310 310 309 307 306 307 300 300 302 302 303 307 308 310 310 309 301
239 244 253 318 54 105 120 134 137 165 192 196 143 138 170 218 209 173 187 190 185 193 218 226 235 248 257 262 261 257 258 265 284 303 312 342 349 344 333 323 319 317 313 305 300 300 302 299 298 298 299 296 297 302
256 359 150 178 174 129 163 185 192 189 173 165 144 167 193 186 168 179 171 180 197 217 235 248 252 253 250 242 247 270 268 273 302 310 321 328 336 343 333 332 325 319 320 319 316 314 308 304 301 295 295 289 290 287
335 12 39 138 128 161 187 198 143 132 128 132 130 135 144 147 167 173 180 185 202 218 240 228 213 231 216 249 262 275 287 290 294 298 304 309 318 324 327 325 322 323 320 316 315 315 312 311 307 306 301 293 290 280
241 263 185 85 89 120 130 132 127 115 91 77 92 156 161 164 179 188 196 203 191 217 215 202 218 241 247 255 269 287 297 292 290 293 299 307 312 308 315 322 323 322 324 321 319 316 315 323 314 321 315 304 293 287
247 230 137 118 122 155 155 160 162 159 163 144 135 147 167 175 199 203 211 202 215 211 204 218 234 260 268 279 289 299 303 307 309 307 304 315 322 314 319 324 323 320 321 324 321 317 320 334 326 323 322 321 310 292
213 225 197 127 138 174 188 175 180 154 182 198 189 190 200 212 218 208 195 194 188 188 188 183 306 288 284 312 318 316 313 313 319 319 317 317 316 318 323 333 333 325 324 328 328 336 345 349 345 339 332 332 323 301